Weather History for KDVP - June, 2014

Change the Weather History Date:

Monday, June 16, 2014

  Actual Average (KOTG) Record (KOTG)
Temperature  
Mean Temperature 67 °F -  
Max Temperature 75 °F 74 °F 92 °F (1973)
Min Temperature 59 °F 55 °F 42 °F (1974)
Cooling Degree Days 2    
Growing Degree Days 17 (Base 50)    
Moisture  
Dew Point 58 °F    
Average Humidity 79    
Maximum Humidity 95    
Minimum Humidity 62    
Precipitation  
Precipitation 1.10 in - - ()
Sea Level Pressure  
Sea Level Pressure 29.79 in    
Wind  
Wind Speed 13 mph (SSE)    
Max Wind Speed 37 mph    
Max Gust Speed 45 mph    
Visibility 9 miles    
Events Rain , Thunderstorm    
Averages and records for this station are not official NWS values.
T = Trace of Precipitation, MM = Missing Value Source: NWS Daily Summary

Daily Weather History Graph

Daily Weather History Graph

Search for Another Location

Airport or City:

Trip Planner

Search our weather history database for the weather conditions in past years. The results will help you decide how hot, cold, wet, or windy it might be!

Date:

Astronomy

Jun. 16, 2014 Rise Set
Actual Time 5:39 AM CDT 9:08 PM CDT
Civil Twilight 5:03 AM CDT 9:44 PM CDT
Nautical Twilight 4:15 AM CDT 10:32 PM CDT
Astronomical Twilight 3:15 AM CDT 11:33 PM CDT
Moon 11:51 PM CDT (6/16) 9:52 AM CDT (6/16)
Length of Visible Light 16h 41m
Length of Day
15h 28m
Waning Gibbous, 83% of the Moon is Illuminated
Jun 16
Waning Gibbous
Jun 19
Last Quarter
Jun 27
New
Jul 5
First Quarter
Jul 12
Full

Hourly Weather History & Observations

Time (CDT) Temp. Dew Point Humidity Pressure Visibility Wind Dir Wind Speed Gust Speed Precip Events Conditions
12:14 AM 59.5 °F 54.7 °F 84% 29.88 in 10.0 mi Calm Calm - N/A   Clear
12:34 AM 60.4 °F 54.3 °F 80% 29.88 in 10.0 mi SSW 9.2 mph - N/A   Clear
12:54 AM 61.9 °F 53.6 °F 74% 29.89 in 10.0 mi South 10.4 mph - N/A   Clear
1:14 AM 62.2 °F 53.6 °F 73% 29.89 in 10.0 mi South 9.2 mph - N/A   Clear
1:34 AM 61.9 °F 54.0 °F 75% 29.89 in 10.0 mi SSW 8.1 mph - N/A   Clear
1:54 AM 61.3 °F 54.0 °F 77% 29.89 in 10.0 mi SSW 10.4 mph - N/A   Clear
2:14 AM 62.6 °F 53.6 °F 72% 29.88 in 10.0 mi South 10.4 mph - N/A   Clear
2:34 AM 62.1 °F 53.6 °F 74% 29.88 in 10.0 mi South 9.2 mph - N/A   Clear
2:54 AM 61.0 °F 54.0 °F 78% 29.88 in 10.0 mi South 9.2 mph - N/A   Clear
3:14 AM 60.8 °F 54.3 °F 79% 29.88 in 10.0 mi South 11.5 mph - N/A   Clear
3:34 AM 61.5 °F 54.5 °F 78% 29.88 in 10.0 mi South 11.5 mph - N/A   Clear
3:54 AM 61.3 °F 54.5 °F 78% 29.88 in 10.0 mi South 11.5 mph - N/A   Clear
4:14 AM 61.7 °F 54.0 °F 76% 29.88 in 10.0 mi South 11.5 mph - N/A   Clear
4:34 AM 61.0 °F 54.0 °F 78% 29.88 in 10.0 mi South 10.4 mph - N/A   Clear
4:54 AM 60.3 °F 54.1 °F 80% 29.89 in 10.0 mi South 8.1 mph - N/A   Clear
5:14 AM 60.3 °F 54.1 °F 80% 29.89 in 10.0 mi SSW 10.4 mph - N/A   Clear
5:34 AM 60.4 °F 54.1 °F 80% 29.89 in 10.0 mi SSW 10.4 mph - N/A   Clear
5:54 AM 61.0 °F 54.5 °F 79% 29.89 in 10.0 mi South 12.7 mph - N/A   Clear
6:14 AM 61.7 °F 54.5 °F 77% 29.89 in 10.0 mi SSW 11.5 mph - N/A   Clear
6:34 AM 61.9 °F 54.7 °F 77% 29.89 in 10.0 mi SSW 13.8 mph - N/A   Clear
6:54 AM 63.5 °F 55.4 °F 75% 29.89 in 10.0 mi SSW 13.8 mph - N/A   Clear
7:14 AM 65.3 °F 55.6 °F 71% 29.89 in 10.0 mi South 17.3 mph - N/A   Clear
7:34 AM 66.2 °F 57.2 °F 73% 29.89 in 10.0 mi South 16.1 mph 20.7 mph N/A   Clear
7:54 AM 67.1 °F 58.3 °F 73% 29.89 in 10.0 mi South 17.3 mph - N/A   Clear
8:14 AM 68.2 °F 59.2 °F 73% 29.89 in 10.0 mi South 15.0 mph 21.9 mph N/A   Clear
8:34 AM 69.1 °F 60.1 °F 73% 29.87 in 10.0 mi South 12.7 mph - N/A   Clear
8:54 AM 70.5 °F 61.2 °F 72% 29.86 in 10.0 mi South 13.8 mph 17.3 mph N/A   Clear
9:14 AM 71.6 °F 61.5 °F 70% 29.86 in 10.0 mi South 13.8 mph 19.6 mph N/A   Clear
9:34 AM 73.6 °F 61.7 °F 66% 29.85 in 10.0 mi South 15.0 mph 21.9 mph N/A   Clear
9:54 AM 74.1 °F 60.4 °F 62% 29.85 in 10.0 mi South 16.1 mph 23.0 mph N/A   Clear
10:13 AM 73.0 °F 62.1 °F 68% 29.85 in 10.0 mi South 15.0 mph 23.0 mph N/A   Clear
10:34 AM 73.2 °F 61.7 °F 67% 29.85 in 10.0 mi South 18.4 mph 25.3 mph N/A   Clear
10:54 AM 72.5 °F 62.2 °F 70% 29.85 in 10.0 mi South 18.4 mph 24.2 mph N/A   Clear
11:14 AM 72.1 °F 62.4 °F 71% 29.82 in 10.0 mi SSE 18.4 mph 27.6 mph N/A   Clear
11:34 AM 73.2 °F 63.5 °F 71% 29.80 in 10.0 mi SSE 25.3 mph 29.9 mph N/A   Clear
11:54 AM 74.3 °F 65.3 °F 73% 29.80 in 10.0 mi SSE 21.9 mph 31.1 mph N/A   Scattered Clouds
12:14 PM 75.2 °F 63.3 °F 66% 29.78 in 10.0 mi SSE 23.0 mph 31.1 mph N/A   Clear
12:34 PM 74.5 °F 62.4 °F 66% 29.75 in 10.0 mi SSE 23.0 mph 27.6 mph N/A   Clear
12:54 PM 74.1 °F 63.3 °F 69% 29.77 in 10.0 mi SSE 28.8 mph 39.1 mph N/A   Clear
1:14 PM 71.8 °F 63.5 °F 75% 29.77 in 10.0 mi SSE 25.3 mph 36.8 mph N/A Rain , Thunderstorm Light Thunderstorms and Rain
1:33 PM 70.9 °F 62.1 °F 74% 29.77 in 10.0 mi SE 15.0 mph - N/A Rain Light Rain
1:54 PM 70.7 °F 60.8 °F 71% 29.79 in 10.0 mi SE 5.8 mph - N/A Rain , Thunderstorm Light Thunderstorms and Rain
2:54 PM 67.8 °F 57.9 °F 71% 29.75 in 10.0 mi ENE 11.5 mph - 0.29 in Rain , Thunderstorm Light Thunderstorms and Rain
3:14 PM 67.6 °F 58.3 °F 72% 29.75 in 7.0 mi North 28.8 mph 39.1 mph 0.02 in Rain , Thunderstorm Thunderstorms and Rain
3:34 PM 62.6 °F 60.1 °F 91% 29.75 in 1.5 mi NNW 34.5 mph 42.6 mph 0.30 in Rain , Thunderstorm Light Thunderstorms and Rain
3:54 PM 63.5 °F 59.9 °F 88% 29.77 in 3.0 mi NNE 11.5 mph 25.3 mph 0.59 in Rain , Thunderstorm Heavy Thunderstorms and Rain
4:14 PM 62.4 °F 59.9 °F 91% 29.64 in 4.0 mi East 25.3 mph - 0.11 in Rain , Thunderstorm Thunderstorms and Rain
4:34 PM 61.5 °F 58.5 °F 90% 29.62 in 7.0 mi East 18.4 mph 31.1 mph 0.12 in Rain , Thunderstorm Light Thunderstorms and Rain
4:53 PM 63.9 °F 58.3 °F 82% 29.66 in 10.0 mi East 12.7 mph 24.2 mph 0.12 in Rain , Thunderstorm Light Thunderstorms and Rain
5:14 PM 63.3 °F 57.2 °F 80% 29.66 in 10.0 mi ESE 12.7 mph - N/A Thunderstorm Thunderstorm
5:34 PM 63.9 °F 57.0 °F 78% 29.67 in 10.0 mi SE 23.0 mph 28.8 mph N/A Thunderstorm Thunderstorm
5:54 PM 62.6 °F 57.2 °F 82% 29.69 in 10.0 mi ESE 16.1 mph - N/A   Light Drizzle
6:14 PM 62.6 °F 58.3 °F 86% 29.70 in 10.0 mi ESE 17.3 mph - N/A Thunderstorm Mostly Cloudy
6:34 PM 64.4 °F 61.0 °F 89% 29.67 in 10.0 mi East 8.1 mph - N/A Rain Light Rain
6:54 PM 66.9 °F 59.4 °F 77% 29.68 in 7.0 mi SSW 15.0 mph 25.3 mph 0.02 in Rain , Thunderstorm Heavy Thunderstorms and Rain
7:14 PM 66.6 °F 61.7 °F 84% 29.68 in 10.0 mi SE 11.5 mph 25.3 mph 0.01 in Rain , Thunderstorm Light Thunderstorms and Rain
7:34 PM 63.9 °F 60.8 °F 90% 29.70 in 7.0 mi SE 20.7 mph - 0.04 in Rain , Thunderstorm Light Thunderstorms and Rain
7:54 PM 63.0 °F 60.1 °F 90% 29.66 in 7.0 mi ESE 17.3 mph 24.2 mph 0.04 in Thunderstorm Scattered Clouds
8:13 PM 62.2 °F 60.8 °F 95% 29.67 in 7.0 mi SSE 19.6 mph 24.2 mph N/A   Scattered Clouds
8:34 PM 61.9 °F 59.9 °F 93% 29.65 in 10.0 mi SE 23.0 mph 27.6 mph N/A   Clear
8:54 PM 61.9 °F 59.0 °F 90% 29.66 in 10.0 mi SE 17.3 mph 26.5 mph N/A   Clear
9:14 PM 61.9 °F 59.4 °F 91% 29.64 in 10.0 mi SE 17.3 mph 24.2 mph N/A   Scattered Clouds
9:34 PM 62.6 °F 59.5 °F 90% 29.66 in 10.0 mi Calm Calm - N/A Rain Light Rain
9:54 PM 62.6 °F 59.9 °F 91% 29.61 in 7.0 mi SE 31.1 mph 35.7 mph 0.01 in Rain , Thunderstorm Light Thunderstorms and Rain
10:14 PM 62.1 °F 59.9 °F 93% 29.71 in 10.0 mi South 25.3 mph 32.2 mph 0.01 in Rain , Thunderstorm Light Thunderstorms and Rain
10:33 PM 62.6 °F 59.9 °F 91% 29.73 in 7.0 mi South 23.0 mph 33.4 mph 0.01 in Rain Rain
10:54 PM 61.7 °F 59.9 °F 94% 29.66 in 5.0 mi SE 27.6 mph 44.9 mph 0.03 in Rain Light Rain
11:14 PM 61.9 °F 59.9 °F 93% 29.64 in 7.0 mi SSE 34.5 mph 40.3 mph N/A   Mostly Cloudy
11:34 PM 61.9 °F 60.3 °F 94% 29.66 in 10.0 mi SSE 33.4 mph 40.3 mph N/A   Mostly Cloudy
11:54 PM 62.6 °F 60.1 °F 91% 29.60 in 10.0 mi SSE 36.8 mph 41.4 mph N/A   Scattered Clouds